Regional Weather Roundup
Issued by NWS

Home | Current Version | Previous Version | Graphics & Text | Print | Product List | Glossary Off
Versions: 1 2 3 4 5 6 7 8 9 10 11 12 13 14 15 16 17 18 19 20 21 22 23 24 25 26 27 28 29 30 31 32 33 34 35 36 37 38 39 40 41 42 43 44 45 46 47 48 49 50

896
ASUS43 KDTX 201101
RWRMI
MICHIGAN HOURLY REGIONAL WEATHER ROUNDUP
NATIONAL WEATHER SERVICE DETROIT/PONTIAC MI
700 AM EDT FRI OCT 20 2017

NOTE: "FAIR" INDICATES FEW OR NO CLOUDS BELOW 12,000 FEET WITH NO
SIGNIFICANT WEATHER AND/OR OBSTRUCTION TO VISIBILITY.

MIZ047>049-052>055-059>063-066>070-074>076-081>083-201200-
SOUTHEAST LOWER MICHIGAN

CITY           SKY/WX    TMP DP  RH WIND       PRES   REMARKS
ADRIAN         FAIR      40  33  76 CALM      30.27R
ALMA           FAIR      38  35  90 CALM      30.21R
ANN ARBOR      FAIR      34  32  92 S5        30.24R WCI  30
BAD AXE        FAIR      42  33  71 S5        30.21S
CARO           FAIR      35  33  94 CALM      30.21S
DETROIT CITY   FAIR      42  36  79 CALM      30.25R
DETROIT        FAIR      44  36  73 CALM      30.25S
FLINT          FAIR      36  32  85 S5        30.23S WCI  32
GROSSE ILE     FAIR      46  35  65 CALM      30.25R
HILLSDALE      FAIR      43  34  70 CALM      30.23S
HOWELL         FAIR      40  36  86 CALM      30.23S

CITY           SKY/WX    TMP DP  RH WIND       PRES   REMARKS
JACKSON        FAIR      41  36  82 CALM      30.24R
LAMBERTVILLE   FAIR      41  37  85 CALM      30.26R
LANSING        FAIR      45  33  63 CALM      30.23R
LAPEER         FAIR      35  35  99 CALM      30.24R
MASON          FAIR      43  35  74 S5        30.23S
MONROE         FAIR      41  33  73 CALM      30.26R
MT. CLEMENS    FAIR      40  37  89 CALM      30.23R
PONTIAC        FAIR      39  35  86 CALM      30.23S
PORT HOPE        N/A     49  35  58 SW7       30.18S
PORT HURON     FAIR      36  34  93 CALM      30.24R
TRI CITIES     FAIR      43  37  79 SW8       30.21R
MIDLAND        FAIR      35  35  98 CALM      30.19F
TROY           FAIR      45  34  66 CALM      30.26S
SAGINAW HB     FAIR      41  34  75 SE6       30.19S
$$
MIZ043>046-050>051-056>058-064>065-071>073-077>080-201200-
SOUTHWEST LOWER MICHIGAN

CITY           SKY/WX    TMP DP  RH WIND       PRES   REMARKS
BATTLE CREEK   FAIR      43  36  76 CALM      30.22R
BENTON HARBOR  FAIR      51  38  60 SE3       30.20R
BIG RAPIDS     FAIR      37  35  92 CALM      30.17S
COLDWATER      FAIR      41  40  97 CALM      30.23R
FREMONT        FAIR      48  31  52 S3        30.16S
HOLLAND        FAIR      47  36  65 S5        30.19R
GRAND RAPIDS   FAIR      44  36  73 S6        30.19S
IONIA          FAIR      45  31  59 S5        30.20S
KALAMAZOO      FAIR      44  35  70 S3        30.22R
LUDINGTON      FAIR      51  38  60 S6        30.13S
MARSHALL       FAIR      40  37  89 CALM      30.23R
MOUNT PLEASANT FAIR      40  38  90 CALM      30.19R
MUSKEGON       FAIR      48  36  63 SE5       30.17R
SOUTH HAVEN    FAIR      51  38  62 S3        30.19S
$$
MIZ016>042-201200-
NORTHERN LOWER MICHIGAN

CITY           SKY/WX    TMP DP  RH WIND       PRES   REMARKS
ALPENA         FAIR      40  34  79 SW3       30.16S
BEAVER ISLAND  FAIR      58  48  70 SW8       30.08S
BELLAIRE       FAIR      37  35  91 CALM      30.14S
CADILLAC       FAIR      42  32  68 CALM      30.15S
CHARLEVOIX     FAIR      47  39  73 SE6       30.13F
FRANKFORT      FAIR      60  39  44 S6        30.10F
GAYLORD        FAIR      39  33  79 SW3       30.14S
GRAYLING       FAIR      31  28  86 CALM      30.16S
HARBOR SPRINGS FAIR      50  37  62 CALM      30.11F
HOUGHTON LAKE  FAIR      42  35  76 CALM      30.18R
MANISTEE       FAIR      43  38  82 E5        30.13S
OSCODA         FAIR      44  32  62 SW8       30.18S
PELLSTON       FAIR      42  37  82 S5        30.11S
ROGERS CITY    FAIR      48  34  57 S7        30.14S
TRAVERSE CITY  FAIR      52  34  50 S5        30.11S
$$
MIZ007>008-015-201200-
EASTERN UPPER MICHIGAN

CITY           SKY/WX    TMP DP  RH WIND       PRES   REMARKS
KINROSS        FAIR      50  48  93 S6        30.08S
MACKINAC ISLAN FAIR      54  42  62 S10       30.09S
NEWBERRY       FAIR      52  51  97 S12       30.05F
S. S. MARIE    FAIR      42  40  92 CALM      30.07S
MUNISING         N/A     53  39  59 S15       30.01F
$$
MIZ004>006-011>014-085-201200-
CENTRAL UPPER MICHIGAN

CITY           SKY/WX    TMP DP  RH WIND       PRES   REMARKS
MANISTIQUE     FAIR      53  47  82 SW6       30.06S
ESCANABA       FAIR      52  42  69 SW5       30.05S
MENOMINEE      FAIR      47  41  80 CALM      30.06S
SAWYER-GWINN   CLEAR     43  34  70 S9        30.02S
$$
MIZ001>003-009>011-084-201200-
WESTERN UPPER MICHIGAN

CITY           SKY/WX    TMP DP  RH WIND       PRES   REMARKS
IRON MOUNTAIN  FAIR      43  34  70 SE3       30.02S
HOUGHTON       FAIR      50  37  61 S5        29.92F
COPPER HARBOR    N/A     55  36  48 SW8G16    29.91F
IRONWOOD       FAIR      54  42  64 VRB6      29.93S
$$

ABBREVIATIONS USED IN REMARKS
   TC - TEMPERATURE IN CELSIUS
  WCI - WIND CHILL INDEX
   HX - HEAT INDEX
  VSB - VISIBILITY





USA.gov is the U.S. government's official web portal to all federal, state and local government web resources and services.